SCP
0 0 1 1 1 1 1 1 1 1 1 1 1 1 1 1 1 0 0 0 0 0 0 0 0 0 0 0 0 0 0 0 0 0 0 0 0 0 0 0 0 0 0
0 0 1 1 1 1 1 1 1 1 1 1 1 1 1 1 1 1 0 0 0 0 0 0 0 0 0 0 0 0 0 0 0 0 0 0 0 0 0 0 0 0 0
0 1 1 1 1 1 1 1 1 1 1 1 1 1 1 1 1 1 1 0 0 0 0 0 0 0 0 0 0 0 0 0 0 0 0 0 0 0 0 0 0 0 0
1 1 1 1 1 1 1 1 1 1 1 1 1 1 1 1 1 1 1 0 0 0 0 0 0 0 0 0 0 0 0 0 0 0 0 0 0 0 0 0 0 0 0
1 1 1 1 1 1 1 1 1 1 1 1 1 1 1 1 1 1 1 0 0 0 0 0 0 0 0 0 0 0 0 0 0 0 0 0 0 0 0 0 0 0 0
1 1 1 1 1 1 1 1 1 1 1 1 1 1 1 1 1 1 0 0 0 0 0 0 0 0 0 0 0 0 0 0 0 0 0 0 0 0 0 0 0 0 0
1 1 1 1 1 1 1 1 1 1 1 1 1 1 1 1 1 1 0 0 0 0 0 0 0 0 0 0 0 0 0 0 0 0 0 0 0 0 0 0 0 0 0
1 1 1 1 1 1 1 1 1 1 1 1 1 1 1 1 1 1 0 0 0 0 0 0 0 0 0 0 0 0 0 0 0 0 0 0 0 0 0 0 1 1 1
1 1 1 0 0 1 1 1 1 1 1 1 1 1 1 1 0 0 0 0 0 0 0 0 0 0 0 0 0 0 0 0 0 0 0 0 0 0 0 0 0 1 1
1 1 0 0 0 0 1 1 1 1 1 1 1 1 0 0 0 0 0 0 0 0 0 0 0 0 0 0 0 0 0 0 0 0 0 0 0 0 0 0 0 0 1
1 1 0 0 0 0 0 1 1 1 1 1 1 1 0 0 0 0 0 0 0 0 0 0 0 0 0 0 0 0 0 0 0 0 0 0 0 0 0 0 0 0 0
0 0 0 0 0 0 0 1 1 1 1 1 1 0 0 0 0 0 0 0 0 0 0 0 0 0 0 0 0 0 0 0 0 0 0 0 0 0 0 0 0 0 0
0 0 0 0 0 0 0 1 1 1 1 1 0 0 0 0 0 0 0 0 0 0 0 0 0 0 0 0 0 0 0 0 0 0 0 0 0 0 0 0 0 0 0
0 0 0 0 0 0 0 0 0 0 1 0 0 0 0 0 0 0 0 0 0 0 0 0 0 0 0 0 0 0 0 0 0 0 0 0 0 0 0 0 0 0 1
0 0 0 0 0 0 0 0 0 0 0 0 0 0 0 0 0 0 0 0 0 0 0 0 0 0 0 0 0 0 0 0 0 0 0 0 0 0 0 0 0 0 0
0 0 0 0 0 0 0 0 0 0 0 0 0 0 0 0 0 0 0 0 0 0 0 0 0 0 0 0 0 0 0 0 0 0 0 0 0 0 0 0 0 0 0
0 0 0 0 0 0 0 0 0 0 0 0 0 0 0 0 0 0 0 0 0 0 0 0 0 0 0 0 0 0 0 0 0 0 0 0 0 0 0 0 0 1 1
0 0 0 0 0 0 0 0 0 0 0 0 0 0 0 0 0 0 0 0 0 0 0 0 0 0 0 0 0 0 0 0 0 0 0 0 0 0 0 0 0 0 0
0 0 0 0 0 0 0 0 0 0 0 0 0 0 0 0 0 0 0 0 0 0 0 0 0 0 0 0 0 0 0 0 0 0 0 0 0 0 0 0 0 0 0
0 0 0 0 0 0 0 0 0 0 0 0 0 0 0 0 0 0 0 0 0 0 0 0 0 0 0 0 0 0 0 0 0 0 0 0 0 0 0 0 0 0 0
0 0 0 0 0 0 0 0 0 0 0 0 0 0 0 0 0 0 0 0 0 0 0 0 0 0 0 0 0 0 0 0 0 0 0 0 0 0 0 0 0 0 0
0 0 0 0 0 0 0 0 0 0 0 0 0 0 0 0 0 0 0 0 0 0 0 0 0 0 0 0 0 0 0 0 0 0 0 0 0 0 0 0 0 0 0
0 0 0 0 0 0 0 0 0 0 0 0 0 0 0 0 0 0 0 0 0 0 0 0 0 0 0 0 0 0 0 0 0 0 0 0 0 0 0 0 0 0 0
0 0 0 0 0 0 0 0 0 0 0 0 0 0 0 0 0 0 0 0 0 0 0 0 0 0 0 0 0 0 0 0 0 0 0 0 0 0 0 0 0 0 0
0 0 0 0 0 0 0 0 0 0 0 0 0 0 0 0 0 0 0 0 0 0 0 0 0 0 0 0 0 0 0 0 0 0 0 0 0 0 0 0 0 0 0
0 0 0 0 0 0 0 0 0 0 0 0 0 0 0 0 0 0 0 0 0 0 0 0 0 0 0 0 0 0 0 0 0 0 0 0 0 0 0 0 0 0 0
Wind_Speed
4 6 10 10 10 10 10 11 12 12 12 12 12 12 13 13 13 14 13 13 12 12 11 10 9 9 9 8 8 7 7 7 7 8 8 7 8 8 9 9 8 6 8
7 7 11 10 10 10 10 11 11 11 11 12 12 12 12 11 12 12 12 12 12 11 10 10 10 9 9 8 8 7 7 7 7 7 8 7 7 8 8 9 8 4 7
8 7 9 10 10 10 10 10 10 10 10 11 11 11 11 11 10 11 11 10 11 10 10 9 9 9 9 8 8 8 8 8 7 7 7 4 5 7 9 9 8 8 8
8 6 7 10 10 10 10 10 10 9 10 9 10 10 10 10 10 10 10 9 9 9 9 9 9 9 8 8 8 8 8 8 7 7 3 3 4 7 8 8 8 9 9
7 6 6 10 9 9 10 10 10 9 9 9 9 9 9 9 8 8 8 8 8 8 8 8 8 7 7 8 7 7 8 8 8 6 4 3 3 6 8 9 9 10 10
6 5 6 10 9 9 10 10 9 9 8 8 8 8 8 8 8 8 8 7 7 7 7 7 7 7 7 7 7 7 7 8 7 4 4 4 4 7 8 9 10 10 10
6 5 5 8 8 9 9 9 9 8 7 7 7 8 7 7 7 7 7 7 6 6 5 5 5 5 6 6 6 7 7 8 5 4 4 5 6 9 9 10 11 11 11
7 5 4 6 6 7 7 7 7 7 7 6 6 6 6 6 6 6 6 6 5 5 5 5 5 5 5 5 6 6 7 7 5 5 4 5 7 10 10 10 10 11 12
6 5 4 3 4 5 6 6 6 6 5 5 5 5 5 5 5 5 4 4 4 4 4 4 4 5 5 5 5 5 6 7 3 3 4 4 7 9 10 10 11 11 12
5 4 3 2 2 2 2 4 5 4 4 4 4 4 4 3 3 4 3 4 4 4 4 4 3 3 3 3 4 4 5 5 3 3 3 4 8 10 10 10 11 11 12
4 3 2 2 2 1 1 2 3 3 3 3 3 4 3 1 1 2 2 3 4 4 4 4 3 3 3 3 4 4 4 1 2 2 3 6 9 10 10 10 10 11 12
3 2 2 2 2 1 1 1 1 1 1 1 1 1 1 1 0 1 1 3 3 3 4 4 4 4 3 2 3 4 1 2 2 2 3 7 8 9 10 10 10 11 11
3 3 1 1 1 1 1 1 1 1 1 1 1 1 1 1 0 0 0 2 2 2 2 2 2 2 2 1 2 2 2 2 2 2 4 7 8 9 9 10 10 11 11
3 2 1 1 1 1 1 1 1 0 1 1 1 1 1 1 1 1 1 1 1 1 1 1 1 2 2 2 3 3 3 2 2 2 3 7 7 8 8 9 9 10 10
2 2 1 1 1 0 1 0 1 0 1 1 1 1 2 2 2 1 1 1 1 1 1 1 2 2 2 3 3 3 3 4 3 3 3 7 7 7 8 9 9 9 10
2 1 1 1 1 0 0 0 1 1 1 1 1 1 2 2 1 1 1 1 1 1 1 2 2 2 2 2 3 3 3 4 3 3 3 4 6 7 7 8 8 8 9
2 1 1 1 0 0 0 1 1 1 1 1 1 1 2 2 2 1 1 1 2 1 1 1 2 2 2 2 3 3 3 3 3 4 3 3 3 5 6 6 6 7 8
1 1 0 0 1 1 1 0 1 0 0 1 1 1 1 2 2 1 1 1 1 1 1 1 1 1 2 2 2 2 2 2 3 3 3 3 2 2 4 5 6 7 8
1 1 1 1 1 1 1 1 1 1 1 1 1 1 1 1 1 1 1 1 1 1 1 1 1 1 2 2 2 2 2 2 3 3 3 3 2 2 2 3 5 6 7
1 1 0 1 1 1 1 1 0 0 1 0 1 1 1 1 1 1 1 1 1 1 1 1 1 1 1 1 2 2 2 2 2 2 3 2 2 3 2 3 3 4 6
2 1 1 1 1 1 0 1 1 1 1 1 1 0 0 1 1 1 1 1 1 1 2 2 1 1 1 0 0 2 2 1 1 2 2 2 2 2 2 3 3 3 3
0 1 2 1 2 1 1 1 1 1 1 1 1 1 1 1 1 2 2 2 2 1 2 1 1 1 1 0 1 0 2 2 2 2 1 2 2 2 2 3 3 3 3
1 1 2 2 2 1 1 0 0 1 1 1 1 1 1 1 2 2 3 2 2 2 2 2 2 3 1 1 1 1 1 2 2 2 2 2 2 2 3 2 3 3 4
2 1 2 2 1 1 0 1 1 1 1 2 1 2 3 2 2 2 3 3 2 2 2 3 2 2 2 1 1 1 2 2 1 2 2 2 3 3 3 3 3 3 4
1 1 2 2 2 1 0 1 1 1 2 1 1 2 2 2 2 2 2 2 2 2 3 2 2 2 2 2 2 1 1 1 1 2 3 3 3 3 3 3 2 3 3
1 1 1 1 2 2 1 0 1 2 1 1 2 2 2 2 2 2 2 2 2 2 2 2 2 2 2 3 2 2 2 2 2 3 3 3 3 3 3 2 2 3 3
Wind_Direction
164 156 158 149 142 134 127 125 124 124 126 127 130 132 137 140 142 147 152 155 157 158 159 159 163 164 163 163 160 159 162 166 163 165 168 170 174 179 182 181 179 173 172
145 151 156 150 145 139 132 129 127 127 129 132 135 136 138 141 144 148 153 157 161 163 164 166 168 167 168 168 167 166 169 172 172 173 175 179 185 189 190 188 182 173 177
133 142 150 151 148 143 137 133 130 130 131 134 135 139 142 145 149 153 157 160 165 168 170 172 172 173 175 175 175 177 179 180 183 185 185 185 193 198 194 189 185 180 182
128 130 144 151 149 145 141 138 134 134 134 135 138 142 146 150 155 160 163 167 171 173 176 179 180 180 181 182 185 188 189 189 192 194 187 187 201 205 199 196 192 190 191
119 123 145 146 147 146 145 144 141 141 140 140 142 145 149 152 153 159 165 171 175 179 183 186 189 190 191 193 196 199 200 202 202 202 186 194 205 214 206 199 195 197 196
116 120 138 140 141 142 143 143 141 141 140 142 147 148 151 155 159 163 168 172 176 181 188 190 194 197 199 201 204 208 210 211 206 199 194 201 207 217 211 205 201 201 200
118 111 124 137 141 141 141 142 142 143 144 147 152 155 156 160 163 167 173 179 184 189 192 191 195 200 208 210 215 218 219 217 202 200 200 207 211 216 216 213 208 205 204
114 108 111 129 137 142 147 149 149 150 151 155 160 162 163 166 169 173 178 182 187 192 201 204 205 210 218 224 229 232 229 229 221 210 208 214 214 219 222 220 214 211 207
106 110 111 122 131 143 150 153 153 154 158 159 162 164 168 173 177 178 184 189 196 205 214 218 217 219 227 229 238 246 244 241 224 209 215 213 222 227 230 224 219 216 211
94 97 97 105 110 123 149 153 149 154 162 162 167 168 172 186 195 193 199 197 210 224 228 230 233 233 234 238 250 257 254 250 240 224 224 224 226 231 234 230 225 222 217
103 101 112 94 92 110 142 150 156 163 168 175 185 184 180 191 210 217 223 209 225 236 240 234 238 245 242 244 252 258 262 248 236 236 233 240 237 236 235 234 228 227 223
147 148 135 116 99 96 143 126 136 158 171 185 167 175 164 140 203 187 256 237 242 251 256 251 245 247 246 248 254 253 241 237 244 247 242 243 245 242 239 236 233 231 229
160 153 151 128 111 101 105 122 113 123 135 177 184 175 155 144 166 225 285 280 277 270 278 278 275 267 252 238 234 237 232 227 236 253 257 248 247 246 243 241 239 236 234
141 154 154 125 99 90 83 107 138 149 157 189 221 187 164 178 195 212 226 260 275 279 279 288 274 275 273 260 244 237 233 218 225 236 253 252 250 250 251 250 247 240 235
152 165 162 115 81 44 68 70 119 194 191 195 222 217 189 190 213 216 229 247 265 265 261 265 268 270 270 265 251 244 243 236 230 234 250 255 253 253 252 252 252 248 239
171 173 190 166 161 163 186 176 194 209 210 196 211 222 203 195 198 211 229 258 269 261 254 253 258 260 264 261 259 254 249 243 232 235 239 256 256 256 256 254 251 249 246
177 184 202 186 103 64 254 223 193 214 210 221 229 230 211 195 191 194 220 243 261 264 261 265 272 268 266 268 267 260 250 245 239 238 241 244 251 254 256 253 250 248 246
137 125 9 10 11 338 331 274 241 227 224 241 233 231 226 214 199 186 214 249 257 252 248 249 261 270 267 266 265 262 257 251 248 243 239 239 240 251 258 257 256 252 248
133 111 31 345 341 322 320 333 240 209 225 239 224 214 222 227 199 181 217 254 252 241 251 255 248 246 254 263 265 260 253 250 252 252 244 240 238 238 253 268 266 263 253
54 64 55 298 328 316 316 344 322 300 281 263 242 232 211 216 198 187 220 262 251 244 273 270 274 266 255 262 277 288 277 262 244 240 241 245 246 241 244 258 265 273 266
27 4 321 331 329 328 281 265 255 250 262 271 265 257 225 216 200 195 237 257 245 230 243 241 231 251 268 264 20 313 306 282 251 241 239 244 250 251 248 250 254 253 268
338 315 310 309 300 294 255 243 225 225 243 240 264 316 296 241 235 222 220 234 230 230 254 243 215 202 243 139 151 76 322 325 307 275 256 242 247 253 254 255 252 248 256
273 284 293 285 289 293 283 298 24 38 356 6 339 320 304 286 260 239 228 229 229 214 227 232 206 193 209 233 170 160 169 256 304 304 278 271 268 254 258 262 259 260 254
272 281 285 283 290 292 263 144 148 167 228 246 258 281 304 300 282 254 235 226 222 219 226 234 206 199 184 215 247 216 202 196 222 296 303 288 276 265 260 261 265 261 257
286 300 294 308 316 310 296 174 168 215 229 267 292 294 299 301 291 276 248 233 233 232 232 229 213 198 191 201 205 204 206 207 200 228 280 294 290 271 261 260 264 265 261
310 313 302 322 324 324 327 284 201 223 241 283 291 284 290 299 300 299 273 248 245 245 241 237 223 211 207 210 212 206 203 209 211 212 245 273 283 289 284 267 261 261 257